Powrót do katalogu

STARLINK-30318

AktywnyŁącznośćVLEO
NORAD 57711·PAYLOAD·🇺🇸 United States

Wystrzelony Aug 27, 2023 z Cape Canaveral Space Force Station

Loading…

Następne Przeloty (najbliższe 24 godziny)

TLE

ŚwieżeSource: CelesTrak SupGP

Epoka: Sep 15, 2026, 03:10 UTC

1 57711C 23129P   26258.13243056  .00059518  00000+0  21546-2 0  2580
2 57711  43.0027 127.7350 0001486 270.1978 274.8640 15.27566071    19

Śledź STARLINK-30318 w czasie rzeczywistym z AllMySat

Download on the App Store